(236502) = 2001 BR51 = 2006 GR28

Discovered at Kitt Peak on 2006-04-02 by Spacewatch.

Orbit

Orbit type: Main Belt

Note: WebGL enabled browser required.

epoch2023-09-13.0
epoch JD2460200.5
perihelion date2021-09-03.77369
perihelion JD2459461.27369
argument of perihelion (°)242.23913
ascending node (°)197.90976
inclination (°)7.32179
eccentricity0.1681186
perihelion distance (AU)2.1632563
Tisserand w.r.t. Jupiter3.4
ΔV w.r.t. Earth (km/sec)9.5
semimajor axis (AU)2.6004385
mean anomaly (°)173.74463
mean daily motion (°/day)0.23503580
aphelion distance (AU)3.038
period (years)4.19
P-vector [x]0.17330729
P-vector [y]0.94251379
P-vector [z]0.28571374
Q-vector [x]-0.98408773
Q-vector [y]0.17726696
Q-vector [z]0.01215562
absolute magnitude16.24
phase slope0.15
uncertainty0
referenceMPEC 2023-N43
observations used648
oppositions15
arc length (days)8206
first opposition used2001
last opposition used2023
residual rms (arc-secs)0.72
perturbers coarse indicatorM-v
perturbers precise indicator003Ek
first observation date used2001-01-16.0
last observation date used2023-07-06.0
computer nameMPCLINUX
JD of orbit computation2456937.357683
perihelion JD uncertainty (days)1.0253E-04
argument of perihelion uncertainty (°)3.6916E-05
ascending node uncertainty (°)2.5178E-05
inclination uncertainty (°)8.2421E-06
eccentricity uncertainty 5.4067E-08
perihelion distance uncertainty (AU)1.4510E-07
Minimum Orbit Intersection Distances (in AU)
for orbit epoch: 2460000.5, reference: E2023-N43
Mercury1.86191
Venus1.45044
Earth1.18956
Mars0.65198
Jupiter2.25798
Saturn6.90435
Uranus15.7867
Neptune27.3351

Observations

661 total observations over interval: 2001 01 16.43620 – 2023 07 06.291734
These data are available for download (format description).

Date (UT) J2000 RA J2000 Dec Magn Location Ref
2001 01 16.43620 08 24 16.40 +06 27 57.9 18.5   608 – Haleakala-AMOS MPS 25736
2001 01 16.44620 08 24 15.83 +06 27 59.9 18.7   608 – Haleakala-AMOS MPS 25736
2001 01 16.45620 08 24 15.25 +06 28 01.9 18.7   608 – Haleakala-AMOS MPS 25736
2001 01 21.32792 08 19 47.88 +06 46 11.6 19.3   704 – Lincoln Laboratory ETS, New Mexico MPS 25736
2001 01 21.34310 08 19 47.06 +06 46 15.2 19.9   704 – Lincoln Laboratory ETS, New Mexico MPS 25736
2001 01 21.35857 08 19 46.16 +06 46 18.8 19.7   704 – Lincoln Laboratory ETS, New Mexico MPS 25736
2001 01 21.39000 08 19 44.34 +06 46 27.0 19.7   704 – Lincoln Laboratory ETS, New Mexico MPS 25736
2003 07 24.32725 20 58 09.68 -06 13 33.9 19.3   644 – Palomar Mountain/NEAT MPS 169950
2003 07 24.34872 20 58 08.61 -06 13 37.9 19.5   644 – Palomar Mountain/NEAT MPS 169950
2003 07 24.37031 20 58 07.52 -06 13 41.8 19.7   644 – Palomar Mountain/NEAT MPS 169950
2004 12 18.29804 06 07 11.00 +10 50 02.2 18.9   704 – Lincoln Laboratory ETS, New Mexico MPS 169950
2004 12 18.31290 06 07 10.11 +10 50 00.8 19.3   704 – Lincoln Laboratory ETS, New Mexico MPS 169950
2004 12 18.33135 06 07 09.06 +10 49 59.0 19.4   704 – Lincoln Laboratory ETS, New Mexico MPS 169950
2004 12 18.35883 06 07 07.46 +10 49 56.3 19.2   704 – Lincoln Laboratory ETS, New Mexico MPS 169950
2006 03 25.41903 14 44 20.94 -13 37 03.6 20.7 V 691 – Steward Observatory, Kitt Peak-Spacewatch MPS 169950
2006 03 25.43631 14 44 20.48 -13 36 58.5 20.9 V 691 – Steward Observatory, Kitt Peak-Spacewatch MPS 169950
2006 03 25.45361 14 44 19.99 -13 36 53.6 20.8 V 691 – Steward Observatory, Kitt Peak-Spacewatch MPS 169950
2006 04 02.36012 14 40 12.48 -12 55 54.3 20.8 V 691 – Steward Observatory, Kitt Peak-Spacewatch MPS 168901
2006 04 02.37741 14 40 11.83 -12 55 48.4 20.8 V 691 – Steward Observatory, Kitt Peak-Spacewatch MPS 168901
2006 04 02.39471 14 40 11.16 -12 55 42.6 20.7 V 691 – Steward Observatory, Kitt Peak-Spacewatch MPS 168901
2006 04 07.34512 14 36 57.87 -12 26 57.2 20.7 V 691 – Steward Observatory, Kitt Peak-Spacewatch MPS 168901
2006 04 07.36244 14 36 57.14 -12 26 51.3 20.5 V 691 – Steward Observatory, Kitt Peak-Spacewatch MPS 168901
2006 04 07.37976 14 36 56.35 -12 26 44.4 20.8 V 691 – Steward Observatory, Kitt Peak-Spacewatch MPS 168901
2006 04 26.22114 14 21 52.58 -10 25 23.0 20.2 V 691 – Steward Observatory, Kitt Peak-Spacewatch MPS 169950
2006 04 26.23855 14 21 51.65 -10 25 16.0 20.0 V 691 – Steward Observatory, Kitt Peak-Spacewatch MPS 169950
2006 04 26.26281 14 21 50.38 -10 25 06.8 20.0 V 691 – Steward Observatory, Kitt Peak-Spacewatch MPS 169950
2006 05 26.28101 14 00 02.98 -07 42 43.6 20.8 V G96 – Mt. Lemmon Survey MPS 172891
2006 05 26.28554 14 00 02.84 -07 42 42.4 21.0 V G96 – Mt. Lemmon Survey MPS 172891
2006 05 26.29009 14 00 02.70 -07 42 41.6 20.9 V G96 – Mt. Lemmon Survey MPS 172891
2006 05 26.29473 14 00 02.52 -07 42 40.6 20.6 V G96 – Mt. Lemmon Survey MPS 172891
2008 09 06.47339 03 42 41.36 +17 20 53.6 19.1 V 703 – Catalina Sky Survey MPS 255900
2008 09 06.47995 03 42 41.72 +17 20 51.6 19.7 V 703 – Catalina Sky Survey MPS 255900
2008 09 06.48655 03 42 42.04 +17 20 51.4 19.4 V 703 – Catalina Sky Survey MPS 255900
2008 09 06.49311 03 42 42.44 +17 20 51.6 19.8 V 703 – Catalina Sky Survey MPS 255900
2008 09 27.46464 03 55 59.12 +16 30 50.8 19.7 V G96 – Mt. Lemmon Survey MPS 258000
2008 09 27.47118 03 55 59.26 +16 30 49.5 19.5 V G96 – Mt. Lemmon Survey MPS 258000
2008 09 27.47771 03 55 59.37 +16 30 47.8 19.5 V G96 – Mt. Lemmon Survey MPS 258000
2008 09 27.48420 03 55 59.52 +16 30 46.2 19.6 V G96 – Mt. Lemmon Survey MPS 258000
2008 10 25.30441 03 53 31.77 +13 56 04.3 19.4 V 703 – Catalina Sky Survey MPS 261610
2008 10 25.31599 03 53 31.45 +13 56 00.0 19.6 V 703 – Catalina Sky Survey MPS 261610
2008 10 25.32771 03 53 31.02 +13 55 55.7 19.4 V 703 – Catalina Sky Survey MPS 261610
2008 10 25.33924 03 53 30.58 +13 55 50.3 19.0 V 703 – Catalina Sky Survey MPS 261610
2008 10 26.30868 03 52 59.76 +13 48 59.8 19.7   704 – Lincoln Laboratory ETS, New Mexico MPS 261610
2008 10 26.32032 03 52 59.38 +13 48 55.3 19.8   704 – Lincoln Laboratory ETS, New Mexico MPS 261610
2008 10 26.33188 03 52 58.96 +13 48 51.7 19.8   704 – Lincoln Laboratory ETS, New Mexico MPS 261610
2008 10 26.34341 03 52 58.54 +13 48 46.5 19.8   704 – Lincoln Laboratory ETS, New Mexico MPS 261610
2008 10 30.26183 03 50 38.77 +13 20 35.8 18.6   704 – Lincoln Laboratory ETS, New Mexico MPS 261610
2008 10 30.27347 03 50 38.25 +13 20 30.0 19.2   704 – Lincoln Laboratory ETS, New Mexico MPS 261610
2008 10 30.28510 03 50 37.80 +13 20 25.2 19.0   704 – Lincoln Laboratory ETS, New Mexico MPS 261610
2008 10 30.29674 03 50 37.31 +13 20 20.4 19.1   704 – Lincoln Laboratory ETS, New Mexico MPS 261610
2008 10 30.30843 03 50 36.80 +13 20 14.6 19.3   704 – Lincoln Laboratory ETS, New Mexico MPS 261610
2008 11 02.35162 03 48 32.54 +12 57 54.3 18.3 V G96 – Mt. Lemmon Survey MPS 263266
2008 11 02.36277 03 48 32.07 +12 57 49.3 18.3 V G96 – Mt. Lemmon Survey MPS 263266
2008 11 02.37395 03 48 31.53 +12 57 44.4 18.3 V G96 – Mt. Lemmon Survey MPS 263266
2008 11 02.38516 03 48 31.03 +12 57 39.5 18.3 V G96 – Mt. Lemmon Survey MPS 263266
2008 11 02.40263 03 48 30.24 +12 57 31.8 18.3 V G96 – Mt. Lemmon Survey MPS 263266
2008 11 02.40351 03 48 30.20 +12 57 31.4 18.3 V G96 – Mt. Lemmon Survey MPS 263266
2008 11 02.41319 03 48 29.77 +12 57 27.0 18.3 V G96 – Mt. Lemmon Survey MPS 263266
2008 11 02.41411 03 48 29.73 +12 57 26.6 18.4 V G96 – Mt. Lemmon Survey MPS 263266
2008 11 02.42382 03 48 29.30 +12 57 22.1 18.4 V G96 – Mt. Lemmon Survey MPS 263266
2008 11 02.42470 03 48 29.26 +12 57 21.8 18.3 V G96 – Mt. Lemmon Survey MPS 263266
2008 11 02.43439 03 48 28.80 +12 57 17.6 18.4 V G96 – Mt. Lemmon Survey MPS 263266
2008 11 02.43529 03 48 28.80 +12 57 17.0 18.4 V G96 – Mt. Lemmon Survey MPS 263266
2008 11 07.26015 03 44 49.41 +12 21 33.6 18.4 V G96 – Mt. Lemmon Survey MPS 263266
2008 11 07.26569 03 44 49.16 +12 21 31.2 18.5 V G96 – Mt. Lemmon Survey MPS 263266
2008 11 07.27119 03 44 48.87 +12 21 28.8 18.6 V G96 – Mt. Lemmon Survey MPS 263266
2008 11 07.27677 03 44 48.58 +12 21 26.1 18.8 V G96 – Mt. Lemmon Survey MPS 263266
2008 11 08.61313 03 43 43.82 +12 11 33.9 18.5 R D29 – Purple Mountain Observatory, XuYi Station MPS 264623
2008 11 08.63307 03 43 42.77 +12 11 25.1 19.0 R D29 – Purple Mountain Observatory, XuYi Station MPS 264623
2008 11 08.64864 03 43 42.06 +12 11 18.4 19.0 R D29 – Purple Mountain Observatory, XuYi Station MPS 264623
2008 11 08.66650 03 43 41.08 +12 11 10.9 18.6 R D29 – Purple Mountain Observatory, XuYi Station MPS 264623
2008 11 18.31972 03 35 23.47 +11 02 25.6 19.5   704 – Lincoln Laboratory ETS, New Mexico MPS 266465
2008 11 18.33216 03 35 22.78 +11 02 21.1 19.7   704 – Lincoln Laboratory ETS, New Mexico MPS 266465
2008 11 18.34457 03 35 22.20 +11 02 13.0 20.3   704 – Lincoln Laboratory ETS, New Mexico MPS 266465
2008 11 18.35700 03 35 21.40 +11 02 10.9 19.8   704 – Lincoln Laboratory ETS, New Mexico MPS 266465
2008 11 18.36960 03 35 20.73 +11 02 06.0 20.0   704 – Lincoln Laboratory ETS, New Mexico MPS 266465
2008 11 28.02619 03 27 05.90 +10 02 43.0 18.4 V J75 – OAM Observatory, La Sagra MPS 267557
2008 11 28.03900 03 27 05.27 +10 02 38.6 18.1 V J75 – OAM Observatory, La Sagra MPS 267557
2008 11 28.05205 03 27 04.65 +10 02 34.5 18.4 V J75 – OAM Observatory, La Sagra MPS 267557
2008 11 30.19682 03 25 23.22 +09 51 22.1 18.9   704 – Lincoln Laboratory ETS, New Mexico MPS 267557
2008 11 30.20924 03 25 22.61 +09 51 18.7 19.5   704 – Lincoln Laboratory ETS, New Mexico MPS 267557
2008 11 30.22170 03 25 22.02 +09 51 14.3 19.3   704 – Lincoln Laboratory ETS, New Mexico MPS 267557
2008 11 30.23412 03 25 21.41 +09 51 10.6 19.2   704 – Lincoln Laboratory ETS, New Mexico MPS 267557
2008 11 30.24657 03 25 20.76 +09 51 06.9 18.9   704 – Lincoln Laboratory ETS, New Mexico MPS 267557
2008 12 07.17653 03 20 28.21 +09 20 50.8 18.5 V 703 – Catalina Sky Survey MPS 268813
2008 12 07.18125 03 20 28.03 +09 20 51.8 19.7 V 703 – Catalina Sky Survey MPS 268813
2008 12 07.18611 03 20 27.85 +09 20 48.5 17.8 V 703 – Catalina Sky Survey MPS 268813
2008 12 07.19090 03 20 27.60 +09 20 47.0 18.4 V 703 – Catalina Sky Survey MPS 268813
